Погода в Горячинске

Погода в Горячинске : погода сейчас, прогноз погоды и архив. Всё, что Вы хотите узнать о погоде в Горячинске!

Поиск расширенной информации на нашем сайте:

Другие новости

Новости СМИ2

Главная страница сайта

Новости сайта

03.07.2017

Напоминаем, что на нашем специализированном сайте Метеоцентр.Азия вы можете получить высокодетализированные автоматические прогнозы погоды по пунктам России, СНГ и мира в авиационном формате (включающие направление и скорость ветра, видимость, явления погоды, количество и форму облачности, нижнюю и верхнюю границу облачности).


Погода в Горячинске - сегодня

Время (UTC), дата Ветер
(°,м/с) 
Видим.   Явления Облачность Т
(°С)
Тd
(°С)
f(%) Тe
(°С)
Pmin
(гПа)
dP
(гПа)
Po
(мм)
O2
(г/м3)
Тmin Tmax R s Состояние
почвы
21 11.12.17 070 (В) н/о    ясно 
-25.4 -28.8 73 -26  1038.6  -0.7  729  325           
00 12.12.17 060 (СВ) н/о    ясно 
-23.6 -28.1 66 -27  1038  0.1  728  323  -25.5      18  равномерный
сухой снег
100% 
03 12.12.17 060 (СВ) 20000 м    1/1 1000 м 
[Sc]
-20.8 -26.6 60 -21  1037.2  728  319           
06 12.12.17 070 (В) 20000 м    3/0 верхняя 
[Ci fib]
-16.2 -23.7 52 -19  1034.4  -1.5  727  313           
09 12.12.17 090 (В) н/о    3/0 верхняя 
[Ci sp]
-18.4 -24.4 59 -23  1034.5  -0.5  727  316           
12 12.12.17 100 (В) н/о    ясно 
-20.7 -25.2 67 -24  1034.4  -0.6  727  318    -15.8       
15 12.12.17 060 (СВ) н/о    ясно 
-19 -24.8 60 -23  1032.6  -1.3  726  316           
18 12.12.17 тихо ()   н/о    ясно 
-20 -25.5 61 -20  1033.2  0.3  726  317           
21 12.12.17 130 (ЮВ) н/о    6/3 1000 м верхняя 
[Sc|Ci sp]
-17.1 -23.8 56 -17  1032.4  726  314           
00 13.12.17 080 (В) н/о    10/3 1000 м средняя 
[Sc|Ac As]
-15.2 -20.4 64 -15  1033.1  1.1  727  312  -21.5      17  равномерный
сухой снег
100% 
03 13.12.17 150 (ЮВ) 10 км  слаб. снег  10/0 средняя 
[As op]
-14.7 -19.1 69 -18  1033.9  0.8  727  311           
06 13.12.17 150 (ЮВ) 4{10}  10 км  слаб. снег  10/0 средняя 
[As op]
-14.1 -18.4 70 -19  1033.6  0.1  727  310           
09 13.12.17 160 (Ю) н/о  снег  10/10 600 м 
[Ns]
-14.3 -16.8 81 -19  1033.8  0.2  727  311           
12 13.12.17 170 (Ю) 5-10  н/о  снег  10/10 600 м 
[Ns]
-13.9 -16.1 83 -19  1034.2  0.4  728  310    -13.7     
15 13.12.17 170 (Ю) 4{12}  н/о  слаб. снег  10/10 600 м 
[Ns]
-14 -16.2 83 -19  1034.7  0.4  728  310           
18 13.12.17 180 (Ю) 3{10}  н/о  слаб. снег  10/10 600 м 
[Ns]
-12.8 -15 84 -16  1034.4  728  309           
21 13.12.17 170 (Ю) 3{11}  н/о  {снег}  10/10 600 м 
[Sc]
-11.9 -14.4 82 -15  1033.4  -0.7  727  308           
00 14.12.17 290 (З) н/о  снег  10/10 300 м 
[Frnb|Ns]
-10.1 -12.2 85 -13  1032.7  -0.2  727  305  -14.3    24  равномерный
сухой снег
100% 
03 14.12.17 300 (СЗ) 10 км  слаб. снег  10/10 600 м 
[Ns]
-10.5 -14.8 71 -14  1034.2  1.3  728  306           
06 14.12.17 300 (СЗ) 6-11{11}  20000 м  позёмок{снег}  10/8 600 м кучево-дожд., средняя 
[Cb cap|Ac As]
-9.5 -16.4 57 -15  1034.1  0.2  728  305           
09 14.12.17 300 (СЗ) 5{12}  н/о  позёмок  10/8 600 м кучево-дожд., средняя 
[Cb cap|As op]
-9.9 -16.6 58 -15  1034.9  0.6  729  306           
12 14.12.17 290 (З) 5{10}  н/о    9/6 600 м средняя 
[Sc|Ac trans]
-10.4 -18.2 53 -15  1035.9  0.6  729  307    -9.4  0.0     
15 14.12.17 300 (СЗ) 5{10}  н/о  позёмок  10/10 600 м кучево-дожд. 
[Cb cap]
-11.8 -20.2 50 -17  1036.5  0.2  730  309           
18 14.12.17 310 (СЗ) 4{10}  н/о    10/10 600 м 
[Sc]
-12.6 -18.7 60 -17  1037.7  0.9  730  310           
21 14.12.17 330 (СЗ) 5-10{12}  н/о  позёмок{снег}  10/10 600 м 
[Sc]
-13.3 -19 62 -19  1038.5  0.6  731  311           
Время (UTC), дата Ветер
(°,м/с) 
Видим.   Явления Облачность Т
(°С)
Тd
(°С)
f(%) Тe
(°С)
Pmin
(гПа)
dP
(гПа)
Po
(мм)
O2
(г/м3)
Тmin Tmax R s Состояние
почвы

Для получения пояснительной информации подведите курсор к названию столбца.

ПОГОДА в Горячинске - архив

Всё, что Вы хотите узнать о погоде в Горячинске - удобно и подробно!

Выберите нужную дату (начиная с 1 января 2015* года) и нажмите кнопку "Найти".
Будут отображены архивные сводки погоды по пункту Горячинск, начиная с указанной даты.


Отображать данные в формате CSV (для использования в таблицах Excel)


Внимание! Наш архив погоды предназначен исключительно для личного некоммерческого использования в познавательных целях. Если Вам необходимы официальные справки о состоянии погоды (для производственных, юридических, коммерческих и т.п. целей), обращайтесь в органы Росгидромета.

*Примечание: данная дата относится к архиву по метеостанциям СССР (Россия, СНГ, Балтия).
Архив по метеостанциям Зарубежной Европы и Азии (кроме Китая) хранится 10 дней, по другим регионам земного шара (Китай, Африка, Америка, Австралия, Океания) - 1 день.

Горячинск - район местоположения метеостанции


Название, широта, долгота, высота метеостанции:
Горячинск 53°ш. 108.3°д. 487 м над ур. моря [Российская Федерация]

Дополнительная информация

В oтличие oт бoльшинства пoгoдных сайтoв мы публикуем пoдрoбную метеoинфoрмацию в детальнoм прoфессиoнальнoм фoрмате.

Характеристики температуры и влажнoсти вoздуха измеряются на высoте 2 м в тени вдали oт зданий и деревьев.
Скoрoсть ветра измеряется на высoте 10 м (на урoвне рoста челoвека скoрoсть ветра ниже в 1.5-2 раза). Если метеoстанция нахoдится в гoрoде или в лесу, тo скoрoсть ветра занижена на 2-4 м/с пo сравнению с oткрытым местoм. Скoрoсть ветра над акватoриями крупных рек и oзёр, а также на вершинах хoлмoв на 2-5 м/с выше, чем в oбычных услoвиях.
Атмoсфернoе давление в разных тoчках местнoсти мoжет значительнo oтличаться oт давления на метеoстанции, в зависимoсти oт услoвий рельефа (при пoдъёме на 10 м давление пoнижается примернo на 1 мм рт.ст.).